星链-5462 (STARLINK-5462 )

导读

STARLINK-5462是美国太空探索技术公司(SpaceX)星链(Starlink)互联网卫星星座的组网卫星,于2023年2月17日发射升空,属于星链星座第二代扩容组网卫星,主要用于为全球提供高速低延迟互联网服务,进一步扩大星链星座的覆盖范围与服务容量。

基本信息
目录编号:
55674
目录名称:
STARLINK-5462
国际标识:
2023-021AY
轨道中心:
EARTH
卫星名称:
星链-5462
卫星全名:
星链-5462 (STARLINK-5462 )
卫星状态:
在轨 (已飞行1303 天)
发射日期:
2023-02-17 UTC
国别 :
美国 (US)
星等 :
--
该卫星已列入 空间交会检测服务 Space Conjunction Data Service (SCDS) ,当前飞行风险评估等级: 无高风险
轨道信息
数据来源 国际轨道数据
星历时间: 2026-09-12T04:29:32+0800
19小时前
查看轨道信息
半长轴: 6950.156km
偏心率: 0.000247
轨道倾角: 70.001°
近地点辐角 262.707°
升交点赤经 54.926°
平近点角 97.381°
近地点: 570.302km
远地点: 573.736km
周期: 96.106分钟
每日圈数: 14.983422
详细信息
固有亮度:
5
最大亮度:
2.5
卫星平台:
Starlink v1.5
覆盖范围:
全球
运营商:
太空探索技术公司
运营商所在国:
美国
制造商(研发单位):
太空探索技术公司
制造商所在国:
美国
使用方式:
暂无
卫星简介
星链(Starlink)计划是由太空探索技术公司(SpaceX)提出的一个巨型低轨卫星互联网星座项目,计划在2019年至2024年间在太空搭建由约1.2万颗卫星组成的“星链”网络,其中1584颗将部署在地球上空550千米处的近地轨道,并从2020年开始工作。该卫星仍在工作。
2D轨道图
3D轨道图
轨道高度分析图
轨道倾角分析图
轨道综合分析图
查看轨道综合分析图
交会数据列表
事件ID 空间交会对象 最接近时刻(TCA) 交会距离 交会风险概率(CRP) 交会风险指数(CRI) 操作
CDM_260905-193403-105805-567423
2026-09-05T
19:34:23+0000
0.914 km
远距离
3.746935E-5 中风险 0.66
CDM_260914-080905-567406-326321
SOAP (63263)
2026-09-14T
08:09:23+0000
2.934 km
极远距离
1.204608E-6 低风险 0.37
与全量物体交会距离演化趋势
与全量物体交会风险概率演化趋势